Sigil TimeFrame

99 2020-05-30 22:40:06
NameTime LeftWindow Opens
Keeper of Nature2d 02:572020-05-29 09:08:00
Skybrine The Inescapable1d 22:092020-05-29 13:56:00
Anvilfist1d 21:322020-05-29 14:33:00
Sylvanna TorLai1d 19:222020-05-29 16:43:00
Great Lord Ganeshan1d 18:282020-05-29 17:37:00
Windstrike The Vile1d 01:512020-05-30 10:14:00
Beast of Cards0d 17:162020-05-30 18:49:00
Jade Dragonite0d 17:022020-05-30 19:03:00
Volgan the Living Ironbark0d 12:572020-05-30 23:08:00
Crolvak, the Fire Master0d 11:352020-05-31 00:30:00
Tsort0d 08:362020-05-31 03:29:00
Noxious Slug0d 06:032020-05-31 06:02:00
Samatha Dark-Soul0d 05:322020-05-31 06:33:00
Lord Varan0d 05:042020-05-31 07:01:00
Ebliss, Fallen Angel of Despair0d 04:542020-05-31 07:11:00
Lord Xordam0d 03:572020-05-31 08:08:00
Ancient Magus Tarkin0d 03:502020-05-31 08:15:00
Detox0d 03:282020-05-31 08:37:00
Dreg nor, Keeper of the Infernal Essence0d 00:592020-05-31 11:06:00
Nessam0d 00:312020-05-31 12:37:00
Shadow0d 03:172020-05-31 15:23:00
Baron Mu, Dark Rider of the Undead0d 03:342020-05-31 15:40:00
Quiver, The Renegade0d 03:482020-05-31 15:54:00
Jorun the Blazing Swordsman0d 03:592020-05-31 16:05:00
Archdevil Yirkon0d 04:272020-05-31 16:33:00
Animated Captain0d 04:382020-05-31 16:44:00
Old World Drake0d 04:432020-05-31 16:49:00
Synge, The Red Dragon0d 04:512020-05-31 16:57:00
Murderface0d 05:232020-05-31 17:29:00
Terrance, Rebel of Rallis0d 05:332020-05-31 17:39:00
Freezebreed, The Frozen Manipulator0d 05:362020-05-31 17:42:00
Smoot the Yeti0d 05:442020-05-31 17:50:00
Tylos, The Lord Master0d 06:432020-05-31 18:49:00
Varsanor, Master of Darkness0d 07:262020-05-31 19:32:00
Garland, The Lord Keeper0d 07:422020-05-31 19:48:00
Vitkros, Hydra of the Deep0d 09:212020-05-31 21:27:00
Zikkir the Dark Archer0d 09:592020-05-31 22:05:00
Gnorb0d 10:322020-05-31 22:38:00
Ormsul the Putrid0d 12:112020-06-01 00:17:00
Anguish0d 15:012020-06-01 03:07:00
Melt Bane, The Forbidden Demon Dragon0d 16:162020-06-01 04:22:00
Pinosis0d 16:432020-06-01 04:49:00
Wanhiroeaz the Devourer0d 17:252020-06-01 05:31:00
Hyrak, Bringer of Nightmares0d 17:342020-06-01 05:40:00
Rancid, Lord of Thugs0d 19:042020-06-01 07:10:00
Mistress of the Sword0d 19:072020-06-01 07:13:00
Brutalitar, Lord of the Underworld0d 20:402020-06-01 08:46:00
Emperor Neudeus, Controller of the Universe0d 21:252020-06-01 09:31:00
Ganja the Stone Golem0d 22:142020-06-01 10:20:00
Ag Nabak the Abomination0d 22:212020-06-01 10:27:00
Lord Narada0d 23:192020-06-01 11:25:00
Sarcrina the Astral Priestess1d 01:082020-06-01 13:14:00
Lady Chaos, Queen of the Abyss1d 02:152020-06-01 14:21:00
Crane1d 02:592020-06-01 15:05:00
Sigil, Lich of Woe1d 06:202020-06-01 18:26:00
Rotborn, Eater of the Dead1d 06:572020-06-01 19:03:00
Traxodon the Plaguebringer1d 11:202020-06-01 23:26:00
Bolkor, the Holy Master1d 13:322020-06-02 01:38:00
Bloodchill the Grizzly1d 13:432020-06-02 01:49:00
Threk, King of Lords1d 17:002020-06-02 05:06:00
The Emerald Assassin1d 18:172020-06-02 06:23:00
Lord Suka1d 18:442020-06-02 06:50:00
King Ashnar, Lord of the Unliving1d 20:162020-06-02 08:22:00
Lady Ariella1d 21:012020-06-02 09:07:00
Dlanod, the Crazed Chancellor1d 22:092020-06-02 10:15:00
Hackerphage, Protector of the Gateway1d 23:542020-06-02 12:00:00
Jazzmin, Maiden of Vitality2d 00:112020-06-02 12:17:00
Numerocure, The Black Messenger of Evil2d 02:422020-06-02 14:48:00
Lord Sibannac2d 02:542020-06-02 15:00:00
Amalgamated Apparition2d 06:252020-06-02 18:31:00
Felroc, Overseer of Hellfire2d 06:512020-06-02 18:57:00
Gorganus of the Wood2d 08:122020-06-02 20:18:00
Nayark the Mummified Sorcerer2d 10:522020-06-02 22:58:00
Kro Shuk, Doomslayer2d 12:242020-06-03 00:30:00
Slashbrood, Devourer of the Blackness2d 16:012020-06-03 04:07:00
Zertan, The Collector2d 16:332020-06-03 04:39:00
Kretok, Descendant of Nature2d 19:212020-06-03 07:27:00
Karvaz, Lord of Alsayic2d 20:002020-06-03 08:06:00
Nar Zhul, Slayer of All2d 22:312020-06-03 10:37:00
Akkel the Enflamed Warrior2d 23:232020-06-03 11:29:00
Murfax, Beast of the Caves3d 00:412020-06-03 12:47:00
Grivvek, Protector of the Brood3d 07:322020-06-03 19:38:00
Lacuste of the Swarm3d 08:162020-06-03 20:22:00
Nafir, God of Desolation3d 09:222020-06-03 21:28:00
Raiyar, the Shadow Master3d 10:262020-06-03 22:32:00
Howldroid, Tormentor of the Pit3d 12:562020-06-04 01:02:00
Gregov, Knight of the Woods3d 14:362020-06-04 02:42:00
Esquin, the Kinetic Master3d 18:312020-06-04 06:37:00
Straya, the Underworld Ruler3d 23:082020-06-04 11:14:00
Crantos, Defender of Ultimation4d 01:442020-06-04 13:50:00
Balerion, Dragon of Dread4d 07:562020-06-04 20:02:00
Q-SEC Commander4d 11:192020-06-04 23:25:00
Xynak, the Arcane Master4d 11:382020-06-04 23:44:00
Skarthul the Avenged4d 15:232020-06-05 03:29:00
Dexor, Victor of Veldara5d 01:322020-06-05 13:38:00
Viserion, the Necrodragon5d 03:402020-06-05 15:46:00
Thanox, Balancer of Chaos8d 22:162020-06-09 10:22:00
Shaik, Servant of Arkron183d 21:562019-11-29 14:09:00
Rook, Hand of Arkron182d 02:122019-12-01 09:53:00